CAPE
124 603 930 861 1110 677 1204 1429 954 998 834 811 813 654 763 1160 1061 741 195 65 99 50 44 31 12 104 341 322 272 202 165 251 299 230 209 146 23 1 24 143 36 1 8
62 580 743 741 911 978 1233 1220 975 744 924 746 736 843 961 862 721 382 128 31 22 9 15 11 12 29 122 146 93 104 75 109 48 3 65 68 72 15 0 122 119 153 100
304 594 931 703 608 986 892 1001 750 478 627 860 955 840 807 647 378 326 215 85 34 14 113 89 38 4 4 3 1 42 45 0 0 0 11 108 28 22 119 115 131 158 167
286 592 766 815 523 510 782 1078 665 654 714 905 755 753 781 740 684 430 239 147 65 5 45 209 375 258 95 55 8 14 0 0 0 0 5 54 116 147 156 114 106 74 38
14 359 473 508 708 531 626 828 908 590 578 863 861 620 604 903 820 410 318 278 78 0 2 10 226 227 126 92 94 106 61 0 0 8 21 62 141 158 71 14 2 0 1
0 0 0 169 650 689 499 541 790 798 520 492 715 639 585 624 756 541 583 261 208 45 0 0 42 123 26 59 100 38 36 17 0 31 60 80 58 70 14 2 0 1 1
0 0 0 122 646 766 547 327 370 504 625 349 733 606 804 605 591 621 428 146 188 245 17 3 0 29 30 57 22 32 24 21 8 15 25 35 33 12 3 1 0 0 0
0 0 0 0 0 564 593 364 203 257 336 470 364 488 533 523 411 575 348 209 133 163 137 8 0 0 25 49 13 40 22 28 10 5 6 3 0 3 5 0 0 1 0
0 0 0 0 0 0 348 610 347 211 207 326 452 360 330 345 384 585 377 212 114 240 93 2 0 0 31 62 17 31 22 18 3 0 0 0 0 1 3 2 2 0 0
0 0 0 0 0 0 2 265 606 387 272 195 374 399 256 357 378 405 365 226 208 214 58 0 0 0 41 39 27 18 18 2 0 0 0 0 1 1 0 4 4 32 23
0 0 0 0 0 0 0 0 146 496 462 322 265 264 297 260 243 226 235 169 128 64 0 0 0 0 42 35 21 12 1 1 6 3 12 2 0 0 31 63 44 45 37
0 0 0 0 0 0 0 0 0 179 363 367 268 269 284 215 236 143 66 45 0 0 0 0 0 0 11 27 0 0 0 0 6 0 2 0 0 1 60 60 42 38 36
0 0 0 0 0 0 0 0 0 0 184 227 290 281 294 220 82 3 0 2 0 0 0 0 0 0 0 0 1 0 0 0 0 0 0 0 0 25 50 40 27 23 38
0 0 0 0 0 0 0 0 0 0 7 142 152 180 149 39 2 1 0 0 0 0 0 0 0 0 0 1 0 0 0 3 0 0 0 0 0 42 62 43 38 26 34
0 0 0 0 0 0 0 0 0 0 0 0 120 171 32 3 0 0 0 0 0 0 0 0 0 0 0 4 0 0 0 0 0 0 0 0 3 23 53 41 37 27 17
0 0 0 0 0 0 0 0 0 0 0 0 0 0 0 1 5 3 0 0 0 0 0 0 0 0 1 4 0 0 0 0 0 0 0 0 32 41 35 12 47 22 12
0 0 0 0 0 0 0 0 0 0 0 0 0 0 0 1 0 1 0 0 0 0 0 0 0 0 3 3 0 0 5 0 0 0 0 2 18 17 24 48 41 14 13
0 0 0 0 0 0 0 0 0 0 0 0 0 0 0 0 0 0 1 0 0 0 0 0 0 0 0 0 0 0 0 0 0 0 0 0 0 0 14 14 12 18 6
0 0 0 0 0 0 0 0 0 0 0 0 0 0 0 0 0 0 0 0 0 0 0 0 0 0 0 0 0 0 0 0 0 0 0 0 0 0 2 8 5 3 3
0 0 0 0 0 0 0 0 1 0 0 0 0 0 0 0 0 0 0 0 4 0 0 0 0 0 0 0 0 0 0 0 0 0 0 0 0 1 0 0 0 0 1
0 0 0 0 0 0 0 0 0 0 0 0 0 0 0 0 0 0 0 0 6 20 0 0 0 0 0 0 0 0 0 0 0 0 0 0 0 0 0 0 0 0 5
0 0 0 0 0 0 0 0 0 0 0 0 0 0 0 0 0 5 13 2 0 13 8 0 0 0 0 0 0 0 0 0 0 0 0 0 0 0 0 0 0 0 0
0 0 0 0 0 0 0 0 1 0 0 0 0 0 4 0 0 8 20 3 1 12 2 0 0 0 0 0 0 0 0 0 0 0 0 0 0 0 0 0 0 0 0
0 0 0 0 0 0 0 0 1 0 0 0 0 0 8 8 1 2 13 16 14 0 6 3 0 0 0 0 0 0 0 0 0 0 0 0 0 0 0 0 0 0 0
0 0 0 0 0 0 0 0 1 1 0 0 0 0 4 14 2 1 0 0 18 0 0 0 0 0 0 0 0 0 0 0 0 0 0 0 0 0 0 0 0 0 0
0 0 0 0 5 0 1 3 6 3 1 1 0 0 0 2 1 2 0 0 0 0 0 0 0 0 0 0 0 0 0 0 0 0 0 0 0 0 0 0 0 0 0
CIN
-165 -50 -8 -17 -5 -13 -2 0 -1 -4 -7 -6 -15 -11 -6 0 0 -2 -58 -144 -112 -152 -170 -201 0 -152 -79 -99 -121 -154 -178 -142 -125 -145 -161 -197 -176 0 -184 -208 -281 0 0
-109 -57 -14 -19 -10 -6 -2 -1 -1 -5 -2 -1 -5 -5 -2 0 0 -12 -68 -131 -140 -193 -187 -19 -20 -209 -165 -167 -220 -224 -256 -229 -283 -28 -257 -261 -270 -237 0 -225 -221 -173 -200
-119 -60 -12 -16 -17 -6 -5 -4 -5 -11 -4 -3 0 -1 -1 -1 -10 -18 -42 -74 -111 -182 -67 -103 -174 0 0 0 0 -294 -295 0 0 0 -146 -221 -366 -391 -242 -245 -210 -168 -138
-104 -45 -21 -9 -24 -12 -9 -2 -10 -8 -5 -2 -2 0 0 0 0 -1 -28 -51 -90 -12 -155 -60 -36 -75 -184 -257 -1 -135 0 0 0 0 -74 -264 -196 -186 -184 -212 -239 -249 -192
-104 -71 -36 -31 -21 -25 -8 -9 -4 -6 -7 -3 -4 -9 -7 0 0 -1 -7 -21 -86 0 -22 -146 -91 -105 -168 -228 -232 -209 -257 0 0 -10 -259 -237 -163 -157 -273 -29 0 0 0
0 0 -6 -102 -36 -18 -18 -9 -9 -3 -6 -6 -3 -11 -6 -1 0 0 0 -30 -50 -117 0 0 -179 -164 -15 -177 -207 -11 -14 -14 0 -326 -244 -226 -269 -282 -23 -6 0 0 0
0 0 0 -89 -21 -12 -11 -22 -8 -12 -7 -9 -5 -5 0 -1 -1 0 -5 -56 -59 -51 -113 -19 0 -194 -9 -170 -11 -16 -20 -21 -23 -22 -12 -4 0 -4 0 0 0 0 0
0 0 0 0 0 -17 -12 -12 -27 -15 -14 -11 -11 -7 -4 -4 -4 -1 -14 -39 -76 -86 -88 -35 0 0 -10 -4 -19 -23 -50 -36 -35 -33 -33 -30 0 -1 0 0 0 0 0
0 0 0 0 0 0 -36 -9 -10 -18 -15 -11 -11 -13 -11 -8 -5 0 -11 -33 -82 -40 -91 -16 0 0 -1 -83 -17 -20 -37 -43 -50 0 0 0 0 0 0 0 0 0 0
0 0 0 0 0 0 -11 -54 -14 -6 -9 -14 -9 -10 -9 -4 -6 -3 -8 -26 -36 -46 -149 0 0 0 0 -2 -14 -26 -34 -12 0 0 0 0 0 0 0 0 0 0 0
0 0 0 0 0 0 0 0 -83 -20 -6 -8 -9 -12 -13 -10 -14 -9 -29 -48 -57 -133 0 0 0 0 -1 -3 -15 -31 -16 -17 -62 -21 -56 -18 0 0 0 0 -2 0 0
0 0 0 0 0 0 0 0 0 -60 -25 -13 -16 -16 -14 -20 -20 -23 -100 -135 -112 0 0 0 0 0 -1 -8 0 0 0 0 -70 0 -64 -6 0 0 0 -1 0 0 0
0 0 0 0 0 0 0 0 0 0 -44 -37 -18 -16 -15 -21 -45 -65 -2 -77 0 0 0 0 0 0 0 0 -48 0 0 0 0 0 0 0 0 0 0 0 -3 -1 0
0 0 0 0 0 0 0 0 0 0 -6 -31 -39 -23 -21 -55 -33 -73 0 0 0 0 0 0 0 0 0 -27 0 0 0 -82 0 0 0 0 0 0 0 0 0 0 0
0 0 0 0 0 0 0 0 0 0 0 0 -25 -27 -31 -16 0 -28 0 0 0 0 0 0 0 0 0 -27 -3 0 0 0 0 0 0 0 -2 -4 0 -3 0 0 0
0 0 0 0 0 0 0 0 0 0 0 0 0 0 0 0 -47 -67 0 0 0 0 0 0 0 0 -19 -29 -2 0 -12 0 0 0 0 0 -4 -1 -3 -5 0 -4 0
0 0 0 0 0 0 0 0 0 0 0 0 0 0 0 0 0 0 0 0 0 0 0 0 0 0 -30 -31 0 0 -77 0 0 0 0 -17 -14 -13 -13 -1 0 -3 -1
0 0 0 0 0 0 0 0 0 0 0 0 0 0 0 0 0 0 0 0 0 0 0 0 0 0 -10 0 0 0 0 0 0 0 0 0 0 -20 -12 -6 -3 -2 -1
0 0 0 0 0 0 0 0 0 0 0 0 0 0 0 0 0 0 0 0 0 0 0 0 0 0 0 0 0 0 0 0 0 0 0 0 0 0 -8 -3 -2 -1 0
0 0 0 0 0 0 0 0 0 0 0 0 0 0 0 0 0 0 0 0 -1 0 0 0 0 0 0 0 0 0 0 0 0 0 0 0 0 -9 0 0 -1 -2 -1
0 0 0 0 0 0 0 0 0 0 0 0 0 0 0 0 0 0 0 0 -1 -4 0 0 0 0 0 0 0 0 0 0 0 0 0 0 0 0 0 0 0 0 -5
0 0 0 0 0 0 0 0 0 0 0 0 0 0 0 0 0 0 -20 0 0 -6 -10 0 0 0 0 0 0 0 0 0 0 0 0 0 0 0 0 0 0 0 0
0 0 0 0 0 -1 0 0 0 0 0 0 0 0 -3 0 0 0 -1 -6 0 -3 -28 0 0 0 0 0 0 0 0 0 0 0 0 0 0 0 0 0 0 0 0
0 0 0 0 0 0 0 0 0 0 0 0 0 0 -14 -8 0 -11 -3 -16 -35 0 -48 -26 0 0 0 0 0 0 0 0 0 0 0 0 0 0 0 0 0 0 0
0 0 0 0 -2 -14 -3 0 -1 -5 0 0 0 0 -18 -21 -7 0 -1 0 -42 0 0 -3 0 0 0 0 0 0 0 0 0 0 0 0 0 0 0 0 0 0 0
0 0 0 0 -56 0 -34 0 -1 -15 0 0 0 0 -9 -45 0 -15 0 0 0 0 0 0 0 0 0 0 0 0 0 0 0 0 0 0 0 0 0 0 0 0 0
Wind_Speed
14 9 9 7 6 5 5 5 5 4 4 3 4 4 6 8 8 6 5 5 6 6 7 6 5 4 4 5 6 7 7 8 9 10 11 20 21 21 19 18 23 21 21
11 8 9 9 7 6 5 4 4 5 4 3 2 3 3 5 5 5 6 5 5 6 5 4 4 4 4 5 6 7 6 6 8 9 9 16 17 19 20 19 20 22 22
8 7 9 9 9 8 7 4 5 5 4 3 2 1 2 3 4 5 4 5 4 4 4 3 3 4 4 4 5 7 6 5 5 8 10 14 17 19 19 20 18 18 18
10 8 10 13 11 10 9 7 4 4 4 3 2 1 1 1 3 4 3 3 2 3 3 5 6 5 3 3 5 6 6 4 4 5 8 12 14 19 20 17 16 16 15
13 12 13 14 14 13 10 10 8 7 5 5 6 4 4 3 0 0 3 3 1 1 3 4 6 5 4 3 4 5 6 5 4 5 9 11 15 17 15 14 15 15 17
15 16 19 15 12 14 13 11 11 10 8 7 7 7 7 7 5 2 1 2 2 0 1 3 6 8 6 4 3 3 4 4 4 7 9 12 11 12 12 12 14 15 16
17 17 18 19 17 16 15 15 13 13 12 11 10 10 9 10 10 7 4 3 3 1 1 4 6 9 9 5 5 5 4 4 5 7 8 8 9 10 10 12 14 14 14
17 18 19 20 20 20 22 18 16 16 15 15 14 14 13 13 13 11 9 5 5 2 3 5 9 10 12 7 6 4 2 3 3 5 5 6 7 8 9 10 12 13 14
18 20 21 21 22 23 23 24 20 19 19 18 18 18 17 16 16 12 9 8 7 4 5 8 11 13 12 9 7 2 0 2 3 3 4 5 6 8 9 9 10 12 15
20 21 21 21 22 21 22 24 26 23 21 22 22 21 21 19 18 13 11 10 9 8 8 10 11 14 13 9 6 3 3 1 1 2 4 5 6 7 7 8 10 12 15
21 20 21 22 22 21 21 22 25 26 24 24 25 24 23 22 20 16 13 12 12 12 12 11 11 13 13 10 6 4 5 5 2 4 4 4 6 6 5 9 9 11 13
27 25 22 21 20 22 21 22 23 25 27 25 26 26 25 23 20 17 16 16 15 14 14 13 11 13 12 11 8 7 7 6 4 5 5 3 5 3 4 7 8 10 12
28 27 23 22 22 22 22 22 23 25 26 27 26 26 26 25 23 22 20 18 18 15 15 14 13 11 11 11 11 11 8 7 6 5 4 3 3 1 4 5 6 8 9
27 30 30 23 22 23 23 24 24 25 26 27 28 26 26 26 26 25 24 21 20 18 18 16 17 14 12 13 12 12 10 9 7 5 5 5 5 1 2 3 5 6 8
29 31 30 24 20 21 22 23 24 25 25 26 27 27 27 29 29 29 27 24 23 21 20 19 17 16 15 14 16 14 12 9 8 7 5 6 4 2 2 2 3 5 6
29 30 30 25 19 19 21 23 24 24 24 24 24 24 26 29 32 32 31 29 27 25 22 21 19 19 18 17 18 17 14 11 10 8 7 8 9 2 0 2 2 4 5
28 30 30 24 18 18 21 23 24 24 24 25 25 25 26 28 30 36 35 32 29 28 24 22 21 20 20 20 19 18 16 13 11 9 9 9 8 5 3 1 2 3 5
29 29 27 21 17 17 20 22 23 24 27 29 29 29 31 31 31 34 38 37 31 29 27 25 24 23 23 21 20 19 17 15 12 11 9 11 10 8 7 6 5 3 3
28 27 26 22 19 18 20 22 25 27 29 32 34 35 34 36 38 37 36 39 35 31 30 27 26 24 24 23 21 20 18 16 14 13 11 12 12 11 10 7 7 5 4
30 27 25 22 18 17 18 22 26 29 31 31 33 35 36 37 38 39 43 38 39 35 32 29 27 26 25 23 21 21 19 18 16 15 13 13 12 10 8 7 7 7 5
29 26 25 21 16 15 18 21 25 28 30 33 35 34 36 38 40 41 42 41 38 39 34 30 28 27 26 23 21 21 20 20 19 17 15 14 13 12 10 9 8 9 8
30 27 22 18 15 12 14 17 20 23 25 29 32 36 37 38 38 39 44 43 39 39 38 34 31 31 29 26 26 23 25 24 23 21 18 16 15 14 13 12 11 10 9
31 25 20 18 14 15 16 18 20 22 26 27 31 34 36 36 36 40 42 44 41 40 41 37 33 34 31 29 25 27 27 29 23 23 23 20 18 17 16 14 13 12 11
30 24 18 17 15 18 16 17 19 23 22 26 27 31 34 34 34 37 40 42 41 40 41 41 35 34 31 31 29 26 25 22 26 26 25 24 21 19 17 16 15 14 13
28 23 19 16 12 19 20 16 16 16 17 18 22 32 34 34 29 31 36 42 40 37 35 39 37 34 33 32 29 26 23 22 21 24 28 25 24 22 20 18 16 15 14
27 24 18 16 10 17 23 21 15 12 15 16 19 27 35 33 31 28 34 40 39 37 38 39 36 34 32 31 30 27 25 25 25 24 25 26 26 24 21 20 18 16 15
Wind_Direction
321 24 17 11 25 11 347 340 320 330 348 356 353 47 71 78 78 67 48 40 39 36 39 21 12 345 341 3 17 23 28 39 41 41 38 78 72 68 62 51 73 63 61
340 31 8 15 344 341 340 343 337 320 324 340 339 351 48 69 68 65 66 56 43 43 25 344 322 310 330 358 20 32 24 28 37 40 29 64 63 63 68 64 62 67 67
7 2 336 352 341 323 318 331 313 320 309 317 339 346 63 80 81 79 65 65 47 30 6 318 309 304 331 353 21 40 29 19 22 37 39 60 64 70 69 70 58 53 51
3 350 327 312 323 321 305 304 300 298 297 293 296 304 303 86 89 85 78 59 21 348 345 284 279 292 331 5 35 43 32 11 338 8 39 55 55 80 73 60 49 47 38
335 330 319 310 303 304 305 292 287 281 278 278 278 275 275 271 246 51 98 91 54 350 306 290 278 283 299 6 31 44 48 324 355 3 55 47 69 71 58 48 40 41 45
327 322 311 305 300 297 293 292 282 277 269 269 272 271 269 268 268 261 189 127 123 116 323 294 279 269 272 297 324 340 315 336 17 37 57 67 54 55 45 37 38 43 44
321 321 320 313 296 290 288 285 282 274 269 266 267 269 267 265 269 266 238 186 152 175 283 294 280 263 263 283 293 297 299 66 56 56 55 47 43 39 27 32 37 35 34
324 320 318 312 305 291 281 280 279 274 268 265 267 268 269 266 265 265 254 206 180 169 264 286 275 262 258 272 280 307 319 84 73 59 37 25 19 12 9 19 22 24 31
317 316 314 313 306 295 286 278 275 274 270 265 265 266 267 266 266 260 244 214 204 219 260 276 273 260 259 265 265 279 233 88 67 45 22 5 6 359 358 6 20 34 48
315 313 313 314 311 306 293 283 276 272 270 266 265 263 264 264 263 249 236 232 229 245 258 269 272 260 257 259 254 239 234 265 340 351 346 341 337 340 353 21 40 46 63
315 314 313 311 309 309 301 292 284 275 269 266 264 262 261 262 261 249 237 238 248 254 258 261 266 260 255 253 240 226 242 263 286 300 314 352 329 343 11 68 41 40 50
306 308 307 308 309 306 304 297 289 282 274 269 264 261 258 258 255 242 241 247 253 256 255 254 257 257 252 248 238 237 247 255 273 287 287 337 328 38 33 57 51 44 48
306 308 309 305 303 302 302 299 292 286 279 272 265 259 256 255 251 246 245 251 255 254 252 251 250 250 244 239 237 239 241 253 266 273 281 310 350 52 67 54 48 43 39
309 307 306 304 299 298 299 298 294 287 281 275 268 259 254 252 248 244 245 248 250 252 251 246 248 244 238 235 233 237 239 249 252 257 277 280 270 238 60 49 53 51 44
308 309 307 307 298 295 295 297 295 289 282 276 271 262 254 250 247 246 245 246 249 250 250 244 241 242 236 233 237 235 240 241 242 254 270 263 253 212 110 59 34 40 41
312 312 312 310 302 295 295 295 295 290 283 278 271 264 260 253 250 245 245 246 248 247 248 244 239 241 238 234 235 238 238 240 246 250 256 255 258 186 197 358 53 23 26
315 314 313 313 307 296 295 296 294 289 283 276 271 266 258 258 254 250 245 245 245 244 244 243 242 240 235 235 234 235 237 236 241 247 252 247 252 256 266 288 355 17 41
316 314 317 318 310 299 295 296 294 288 281 274 269 266 262 259 258 254 249 245 244 241 240 239 240 238 232 232 232 234 235 238 239 244 250 245 251 258 265 272 284 312 354
319 319 318 316 308 300 297 296 294 290 283 275 269 266 264 260 256 254 251 246 241 237 237 238 238 234 227 229 231 233 234 236 238 245 248 247 252 257 263 267 277 291 313
319 320 322 319 313 306 301 297 295 290 284 279 271 267 264 260 256 254 249 250 243 234 233 234 232 232 227 225 231 232 231 237 241 244 246 248 250 252 254 262 275 287 299
324 325 325 325 321 311 307 303 298 291 285 278 271 268 264 260 256 252 248 244 243 236 229 228 227 224 227 221 223 228 235 243 245 248 246 246 248 253 258 264 273 284 293
327 326 330 331 326 315 309 310 306 300 292 282 276 269 264 260 257 253 246 242 238 236 234 224 224 224 230 221 225 226 235 244 249 251 249 246 248 255 260 266 271 278 287
327 329 336 337 327 314 310 309 305 301 292 285 277 271 263 258 256 251 246 240 235 235 234 225 221 223 222 226 216 233 238 246 243 251 251 252 253 257 262 266 270 274 281
327 333 339 343 329 314 313 306 297 290 281 280 279 270 260 257 255 250 243 237 235 232 232 229 222 225 220 221 227 238 242 248 245 250 254 254 256 258 260 265 267 272 277
334 337 341 345 340 320 323 314 300 289 283 285 280 268 257 256 259 250 240 233 232 229 233 230 224 223 222 225 225 232 241 248 253 256 252 253 259 259 262 263 265 269 274
340 341 346 346 339 327 326 328 308 286 281 276 273 269 258 254 253 258 237 230 230 227 233 228 225 223 224 226 231 232 237 245 250 258 260 254 254 261 261 264 266 269 272